Simultaneous Nadir Overpasses (SNOs) Predictions

Prediction of SNOs between GOES-14 and AQUA Satellite Orbit:

Table of predicted SNOs for the next 14.0 days since TLE Epoch: 1/10/2025
Index Date Time (GOES-14) GOES-14 Lat,Lon AQUA Lat,Lon Distance(km) Time Diff (sec)
1 01/11/2025 09:31:49 0.29,-108.22 -0.10,-106.42 204.55 80
2 01/11/2025 21:54:05 -0.31,-108.16 -0.93,-111.16 341.39 80
3 01/13/2025 21:32:20 -0.31,-108.13 0.07,-106.49 187.29 80
4 01/14/2025 09:54:28 0.33,-108.18 0.95,-111.20 342.32 80
5 01/16/2025 09:32:42 0.32,-108.16 -0.06,-106.52 187.36 80
6 01/16/2025 21:54:58 -0.34,-108.10 -1.00,-111.26 358.15 80
7 01/18/2025 21:33:11 -0.33,-108.09 0.02,-106.58 172.41 80
8 01/19/2025 09:55:18 0.34,-108.14 1.02,-111.28 356.82 80
9 01/21/2025 09:33:30 0.34,-108.13 -0.02,-106.60 174.34 80
10 01/21/2025 21:55:45 -0.35,-108.07 -1.07,-111.32 370.88 80
11 01/23/2025 21:33:56 -0.35,-108.05 -0.03,-106.64 160.45 80
12 01/24/2025 09:56:03 0.37,-108.10 1.03,-111.34 368.83 80
